Time,TemperatureF,DewpointF,PressureIn,WindDirection,WindDirectionDegrees,WindSpeedMPH,WindSpeedGustMPH,Humidity,HourlyPrecipIn,Conditions,Clouds,dailyrainin,SoftwareType,DateUTC
2013-11-14 00:00:00,-999.0,-99.9,-100.00,North,-999,11.0,16.0,45,-99.99,,,-99.99,,2013-11-14 06:00:00,
2013-11-14 00:32:00,-999.0,-99.9,-100.00,North,-999,11.0,16.0,45,-99.99,,,-99.99,,2013-11-14 06:32:00,
2013-11-14 00:42:00,-999.0,-99.9,-100.00,North,-999,11.0,16.0,45,-99.99,,,-99.99,,2013-11-14 06:42:00,
2013-11-14 00:52:00,-999.0,-99.9,-100.00,North,-999,11.0,16.0,45,-99.99,,,-99.99,,2013-11-14 06:52:00,
2013-11-14 01:00:00,-999.0,-99.9,-100.00,North,-999,13.0,18.0,46,-99.99,,,-99.99,,2013-11-14 07:00:00,
2013-11-14 01:32:00,-999.0,-99.9,-100.00,North,-999,13.0,18.0,46,-99.99,,,-99.99,,2013-11-14 07:32:00,
2013-11-14 01:42:00,-999.0,-99.9,-100.00,North,-999,13.0,18.0,46,-99.99,,,-99.99,,2013-11-14 07:42:00,
2013-11-14 01:53:00,-999.0,-99.9,-100.00,North,-999,13.0,18.0,46,-99.99,,,-99.99,,2013-11-14 07:53:00,
2013-11-14 04:00:00,-999.0,-99.9,-100.00,North,-999,10.0,13.0,57,-99.99,,,-99.99,,2013-11-14 10:00:00,
2013-11-14 04:33:00,-999.0,-99.9,-100.00,North,-999,10.0,13.0,57,-99.99,,,-99.99,,2013-11-14 10:33:00,
2013-11-14 04:43:00,-999.0,-99.9,-100.00,North,-999,10.0,13.0,57,-99.99,,,-99.99,,2013-11-14 10:43:00,
2013-11-14 04:52:00,-999.0,-99.9,-100.00,North,-999,10.0,13.0,57,-99.99,,,-99.99,,2013-11-14 10:52:00,
2013-11-14 08:00:00,-999.0,-99.9,-100.00,North,-999,9.0,12.0,65,-99.99,,,-99.99,,2013-11-14 14:00:00,
2013-11-14 08:32:00,-999.0,-99.9,-100.00,North,-999,9.0,12.0,65,-99.99,,,-99.99,,2013-11-14 14:32:00,
2013-11-14 08:42:00,-999.0,-99.9,-100.00,North,-999,9.0,12.0,65,-99.99,,,-99.99,,2013-11-14 14:42:00,
2013-11-14 08:52:00,-999.0,-99.9,-100.00,North,-999,9.0,12.0,65,-99.99,,,-99.99,,2013-11-14 14:52:00,
2013-11-14 10:00:00,-999.0,-99.9,-100.00,North,-999,8.0,15.0,38,-99.99,,,-99.99,,2013-11-14 16:00:00,
2013-11-14 10:33:00,-999.0,-99.9,-100.00,North,-999,8.0,15.0,38,-99.99,,,-99.99,,2013-11-14 16:33:00,
2013-11-14 10:43:00,-999.0,-99.9,-100.00,North,-999,8.0,15.0,38,-99.99,,,-99.99,,2013-11-14 16:43:00,
2013-11-14 10:52:00,-999.0,-99.9,-100.00,North,-999,8.0,15.0,38,-99.99,,,-99.99,,2013-11-14 16:52:00,
2013-11-14 16:00:00,-999.0,-99.9,-100.00,North,-999,15.0,21.0,35,-99.99,,,-99.99,,2013-11-14 22:00:00,
2013-11-14 16:33:00,-999.0,-99.9,-100.00,North,-999,15.0,21.0,35,-99.99,,,-99.99,,2013-11-14 22:33:00,
2013-11-14 16:43:00,-999.0,-99.9,-100.00,North,-999,15.0,21.0,35,-99.99,,,-99.99,,2013-11-14 22:43:00,
2013-11-14 16:53:00,-999.0,-99.9,-100.00,North,-999,15.0,21.0,35,-99.99,,,-99.99,,2013-11-14 22:53:00,
2013-11-14 18:00:00,-999.0,-99.9,-100.00,North,-999,7.0,14.0,53,-99.99,,,-99.99,,2013-11-15 00:00:00,
2013-11-14 18:32:00,-999.0,-99.9,-100.00,North,-999,7.0,14.0,53,-99.99,,,-99.99,,2013-11-15 00:32:00,
2013-11-14 18:42:00,-999.0,-99.9,-100.00,North,-999,7.0,14.0,53,-99.99,,,-99.99,,2013-11-15 00:42:00,
2013-11-14 18:52:00,-999.0,-99.9,-100.00,North,-999,7.0,14.0,53,-99.99,,,-99.99,,2013-11-15 00:52:00,
2013-11-14 19:00:00,-999.0,-99.9,-100.00,North,-999,2.0,4.0,62,-99.99,,,-99.99,,2013-11-15 01:00:00,
2013-11-14 19:32:00,-999.0,-99.9,-100.00,North,-999,2.0,4.0,62,-99.99,,,-99.99,,2013-11-15 01:32:00,
2013-11-14 19:42:00,-999.0,-99.9,-100.00,North,-999,2.0,4.0,62,-99.99,,,-99.99,,2013-11-15 01:42:00,
2013-11-14 19:52:00,-999.0,-99.9,-100.00,North,-999,2.0,4.0,62,-99.99,,,-99.99,,2013-11-15 01:52:00,
2013-11-14 20:00:00,-999.0,-99.9,-100.00,North,-999,3.0,4.0,67,-99.99,,,-99.99,,2013-11-15 02:00:00,
2013-11-14 20:32:00,-999.0,-99.9,-100.00,North,-999,3.0,4.0,67,-99.99,,,-99.99,,2013-11-15 02:32:00,
2013-11-14 20:42:00,-999.0,-99.9,-100.00,North,-999,3.0,4.0,67,-99.99,,,-99.99,,2013-11-15 02:42:00,
2013-11-14 20:52:00,-999.0,-99.9,-100.00,North,-999,3.0,4.0,67,-99.99,,,-99.99,,2013-11-15 02:52:00,
2013-11-14 21:00:00,-999.0,-99.9,-100.00,North,-999,3.0,4.0,72,-99.99,,,-99.99,,2013-11-15 03:00:00,
2013-11-14 21:34:00,-999.0,-99.9,-100.00,North,-999,3.0,4.0,72,-99.99,,,-99.99,,2013-11-15 03:34:00,
2013-11-14 21:44:00,-999.0,-99.9,-100.00,North,-999,3.0,4.0,72,-99.99,,,-99.99,,2013-11-15 03:44:00,
2013-11-14 21:54:00,-999.0,-99.9,-100.00,North,-999,3.0,4.0,72,-99.99,,,-99.99,,2013-11-15 03:54:00,